Погода в Семеновке

Украина / Полтавская область     49°35′47″N   33°11′11″E
темп.,
°C
ветер,
м/с
пор.,
м/с
влажн.,
%
обл.,
%
осадки,
мм/ч
давл.,
гПа
погр.,
м
15 мая, сб
сб1500:00+13ю478953 0.0 100998
03:00+12ю37945 0.0 1009131
06:00+12ююз38935 0.0 1010195
09:00+17юз47715 0.0 1011606
12:00+21ююз57585 0.0 10111462
15:00+22юз575238 0.4 10111898
18:00+19ю3466100 0.0 101189
21:00+16з2371100 0.0 101250
16 мая, вс
вс1600:00+16юз1170100 0.0 101211
03:00+12сз22843 0.0 101313
06:00+12с12865 0.0 101414
09:00+18всв216593 0.0 1014404
12:00+22в3353100 0.0 10131212
15:00+24в344672 0.0 10121866
18:00+23всв345441 0.0 10101619
21:00+17св4577100 0.0 100969
17 мая, пн
пн1700:00+16св41176100 0.0 1008200
03:00+15св41090100 0.6 1006198
06:00+15ссв3591100 0.1 1004114
09:00+19в347625 0.1 1003442
12:00+23юв456354 0.2 1002944
15:00+25вюв565970 0.5 10011472
18:00+22ю69755 3.5 1001776
21:00+16ююз34958 5.1 100299
18 мая, вт
вт1800:00+15зюз5893100 0.0 1004486
03:00+13юз48964 0.0 1005239
06:00+13ю2595100 0.0 1006140
09:00+16ююв578950 0.5 1007535
12:00+21ююз686198 1.4 10061291
15:00+20ю7968100 4.0 10051138
18:00+17з6108091 3.4 1006856
21:00+12з498842 3.4 1008228
19 мая, ср
ср1900:00+11з5119364 0.0 1009327
03:00+10з389650 0.0 1010188
06:00+10з259568 0.0 1010139
09:00+15зюз337499 0.0 1011649
12:00+17з4464100 0.5 10111218
15:00+19зсз2354100 0.7 10101493
18:00+17ссз3367100 1.1 1011807
21:00+13с3483100 1.2 101148